Location: Ti�oul�y�
(10.8667°N, 12.4833°W)
Time: 04:32:17
(UTC+00:00)

Daily predictions for brighter satellites

Satellite Brightness Start Highest point End
(mag) Time Altitude Azimuth Time Altitude Azimuth Time Altitude Azimuth
CZ-3 R/B 4.4 02:19:05 10° WSW 03:26:24 89° SSE 03:40:21 10° ENE
USA 267 3.6 04:06:11 10° SE 04:12:37 62° NE 04:13:21 58° NNE
ATLAS CENTAUR R/B 4.3 04:17:12 14° ESE 04:17:59 15° ESE 04:20:37 10° ENE
Meteor 2-10 Rocket 4.5 04:22:28 46° E 04:22:28 46° E 04:27:21 10° NNE
IDEFIX/ARIANE 42P 3.8 04:20:59 10° NNE 04:23:54 35° NNE 04:23:54 35° NNE
FALCON 9 R/B 3.6 04:43:02 17° ENE 04:43:02 17° ENE 04:44:41 10° E
Cosmos 1992 Rocket 4.2 04:46:56 61° N 04:46:56 61° N 04:51:15 10° N
CZ-4B R/B 4.1 04:42:30 10° NNE 04:46:29 42° E 04:47:15 38° SE
SWIFT 3.8 04:48:10 31° NNE 04:48:10 31° NNE 04:51:08 10° NE
ARIANE 5 R/B 3.8 04:47:41 54° SSW 04:48:25 58° S 05:04:10 10° E
NOSS 3-4 (A) 4.0 04:41:02 10° NNW 04:48:44 82° ENE 04:56:51 10° SSE
NOSS 3-4 (C) 4.0 04:41:09 10° NNW 04:48:50 82° ENE 04:56:57 10° SSE
Cosmos 1844 Rocket 3.9 04:49:51 14° SSE 04:54:17 39° ESE 04:59:28 10° NE
Meteor 1-31 Rocket 3.5 04:51:53 10° NNE 04:55:43 52° E 04:56:00 50° ESE
DELTA 2 R/B (1) 3.7 04:56:25 57° S 04:57:19 67° SE 05:02:48 10° ENE
Cosmos 2221 3.2 05:01:52 43° NNW 05:01:52 43° NNW 05:04:56 10° N
SL-16 R/B 3.5 04:55:07 10° NNW 05:04:05 23° S 05:06:12 10° S
COSMOS 2441 4.2 04:55:58 10° N 05:00:45 76° WNW 05:00:58 74° WSW
Cosmos 1607 4.4 04:57:11 22° S 05:01:12 57° ESE 05:07:16 10° NNE
CZ-2C R/B 2.2 05:03:19 10° NNE 05:07:56 90° ESE 05:09:51 36° SSW
Cosmos 489 Rocket 4.5 05:06:30 43° SW 05:08:24 60° WNW 05:14:38 10° N
Meteor PRIRODA 4.1 05:10:18 10° NNE 05:13:51 57° E 05:15:47 25° S
Cosmos 2263 Rocket 4.1 05:16:10 13° NW 05:16:10 13° NW 05:17:24 10° NNW
PSLV R/B 4.5 05:10:25 10° NNE 05:14:28 58° E 05:18:01 13° S
Cosmos 1238 Rocket 2.5 05:13:27 10° N 05:16:31 67° NW 05:16:31 67° NW
PAYLOAD A 4.2 05:15:57 10° N 05:20:45 45° WNW 05:21:53 39° WSW
Cosmos 2346 Rocket 4.3 05:14:53 10° S 05:20:58 81° W 05:27:01 10° N
Delta 2 Rocket 3.9 05:21:00 22° WNW 05:24:42 82° SW 05:30:03 10° SE
Cosmos 1500 Rocket 3.8 05:20:46 10° N 05:25:04 68° E 05:29:22 10° S
Centaur D-1AR AC-37 4.3 05:26:19 26° W 05:29:02 69° SSW 05:32:43 10° ESE
MOS 1-B 4.3 05:24:47 10° NNE 05:30:34 87° ESE 05:36:21 10° SSW
Ariane 42L Rocket 4.3 05:28:47 27° WSW 05:32:12 55° S 06:00:24 10° ESE
ARIANE 5 R/B 4.4 05:30:35 14° S 05:32:21 18° SSE 05:37:38 10° ESE
ATLAS 2AS CENTAUR R/B 4.0 05:35:58 17° SW 05:35:58 17° SW 05:37:56 10° SSW
Cosmos 1484 Rocket 3.5 05:30:15 10° NNE 05:34:04 52° E 05:37:48 10° S
Tsikada Rocket 4.0 05:28:35 10° SSW 05:34:56 67° W 05:41:13 10° N
Cosmos 2034 Rocket 4.1 05:31:55 10° N 05:38:08 78° E 05:44:17 10° S
Lacrosse 5 rocket 2.2 05:38:38 25° WNW 05:39:14 26° WNW 05:42:34 10° N
Cosmos 1818 4.2 05:37:06 25° WSW 05:39:18 34° WNW 05:44:13 10° N
Cosmos 1844 3.6 05:33:55 10° SSW 05:39:28 89° ESE 05:45:01 10° NNE
Cosmos 1464 Rocket 4.0 05:34:37 10° NNW 05:40:49 65° W 05:47:06 10° S
Ariane H10 2.2 05:39:20 24° WSW 05:41:34 49° S 05:44:19 10° ESE
Meteor 2-3 Rocket 3.9 05:36:13 10° N 05:41:45 74° E 05:47:19 10° S
Meteor 2-2 Rocket 4.5 05:36:28 10° SSW 05:41:49 45° W 05:47:10 10° NNW
DEBRIS 4.1 05:36:27 10° NW 05:45:34 56° NE 05:48:38 10° ESE
Cosmos 292 Rocket 3.7 05:41:10 10° SSW 05:46:00 75° WNW 05:50:50 10° N
Cosmos 1825 2.3 05:42:41 10° NNW 05:46:21 50° W 05:50:01 10° S
GPS 2-12 Rocket1 3.0 05:43:51 22° W 05:46:33 59° SSW 05:50:54 10° ESE
Cosmos 1869 3.5 05:44:31 10° SSW 05:48:19 47° W 05:52:07 10° N
PAYLOAD B 4.2 05:43:51 10° NNE 05:49:26 87° WNW 05:55:03 10° SSW
ALOS 3.7 05:45:41 10° NNE 05:50:03 40° E 05:54:25 10° S
CZ-3A R/B 2.4 05:49:07 11° NW 05:51:46 56° NNE 06:02:01 10° ESE
USA 267 4.4 05:50:54 10° S 05:55:27 20° SW 06:00:01 10° W
ISS -3.7 05:53:28 12° SSW 05:56:31 74° SE 05:59:50 10° NE
ATLAS CENTAUR R/B 2.6 05:53:28 16° WSW 05:56:35 32° WNW 06:00:58 10° N
CZ-3B R/B 4.0 05:52:19 10° SSW 05:58:19 37° SE 06:11:35 10° ENE
Cosmos 2285 Rocket 4.1 05:55:38 10° NNW 06:01:52 56° WSW 06:08:09 10° S
ARIANE 5 DEB (SYLDA) 4.1 05:55:16 13° W 06:03:49 54° S 06:07:27 10° ESE
Ariane H10 3.7 05:53:09 13° WSW 06:04:17 43° S 06:07:52 10° ESE
TOS 4.0 05:59:22 10° W 06:07:49 47° SSW 06:10:28 10° SE
Cosmos 1408 4.3 06:06:00 10° WNW 06:07:55 14° W 06:09:51 10° SW
SL-24 R/B - RUBIN 2 3.8 06:04:32 10° SSW 06:08:43 69° ESE 06:13:06 10° NNE
Cosmos 2278 Rocket 3.6 06:04:28 10° S 06:09:43 40° ESE 06:14:58 10° NE
Ariane 44P Rocket 3.5 06:12:07 10° SW 06:13:45 19° SSE 06:16:22 10° ESE
Lacrosse 5 1.9 06:09:03 10° SW 06:14:04 64° WNW 06:19:06 10° NNE
RESURS DK-1 2.3 06:14:37 10° NNW 06:18:43 81° WSW 06:22:49 10° SSE
Cosmos 1633 Rocket 4.5 06:16:32 10° NNE 06:20:43 44° E 06:24:55 10° SSE
